Weather History for KPGA - December, 2012

Change the Weather History Date:

Monday, December 17, 2012

  Actual Average Record
Temperature  
Mean Temperature 38 °F -  
Max Temperature 44 °F 43 °F 56 °F (1980)
Min Temperature 32 °F 25 °F 8 °F (1967)
Degree Days  
Heating Degree Days 27    
Moisture  
Dew Point 29 °F    
Average Humidity 69    
Maximum Humidity 82    
Minimum Humidity 48    
Precipitation  
Precipitation 0.00 in - - ()
Sea Level Pressure  
Sea Level Pressure 30.02 in    
Wind  
Wind Speed 3 mph (South)    
Max Wind Speed 7 mph    
Max Gust Speed -    
Visibility 10 miles    
Events      
Averages and records for this station are not official NWS values.
T = Trace of Precipitation, MM = Missing Value Source: NWS Daily Summary

Daily Weather History Graph

Daily Weather History Graph

Search for Another Location

Airport or City:

Trip Planner

Search our weather history database for the weather conditions in past years. The results will help you decide how hot, cold, wet, or windy it might be!

Date:

Astronomy

Dec. 17, 2012 Rise Set
Actual Time 7:33 AM MST 5:11 PM MST
Civil Twilight 7:04 AM MST 5:40 PM MST
Nautical Twilight 6:31 AM MST 6:12 PM MST
Astronomical Twilight 6:00 AM MST 6:44 PM MST
Moon 10:49 AM MST (12/17) 10:29 PM MST (12/17)
Length of Visible Light 10h 36m
Length of Day
9h 38m
Waxing Crescent, 25% of the Moon is Illuminated
Dec 17
Waxing Crescent
Dec 19
First Quarter
Dec 28
Full
Jan 4
Last Quarter
Jan 11
New

Hourly Weather History & Observations

Time (MST) Temp. Windchill Dew Point Humidity Pressure Visibility Wind Dir Wind Speed Gust Speed Precip Events Conditions
12:53 AM 33.1 °F - 26.1 °F 75% 30.09 in 10.0 mi Calm Calm - N/A   Overcast
1:53 AM 33.1 °F 27.7 °F 26.1 °F 75% 30.08 in 10.0 mi South 5.8 mph - N/A   Partly Cloudy
2:53 AM 33.1 °F 27.7 °F 25.0 °F 72% 30.08 in 10.0 mi SSW 5.8 mph - N/A   Scattered Clouds
3:53 AM 34.0 °F 31.0 °F 26.1 °F 73% 30.06 in 10.0 mi West 3.5 mph - N/A   Overcast
4:53 AM 35.1 °F 32.2 °F 27.0 °F 72% 30.06 in 10.0 mi South 3.5 mph - N/A   Overcast
5:53 AM 34.0 °F - 27.0 °F 75% 30.07 in 10.0 mi Calm Calm - N/A   Overcast
6:53 AM 33.1 °F - 26.1 °F 75% 30.08 in 10.0 mi Calm Calm - N/A   Overcast
7:53 AM 34.0 °F 28.0 °F 24.1 °F 67% 30.09 in 10.0 mi SSW 6.9 mph - N/A   Overcast
8:53 AM 37.0 °F 32.4 °F 25.0 °F 62% 30.08 in 10.0 mi SW 5.8 mph - N/A   Overcast
9:53 AM 37.9 °F - 27.0 °F 65% 30.09 in 10.0 mi Calm Calm - N/A   Overcast
10:53 AM 41.0 °F 38.0 °F 28.0 °F 60% 30.08 in 10.0 mi SW 4.6 mph - N/A   Overcast
11:53 AM 41.0 °F - 28.9 °F 62% 30.06 in 10.0 mi Calm Calm - N/A   Overcast
12:53 PM 42.1 °F 40.2 °F 30.0 °F 62% 30.03 in 10.0 mi North 3.5 mph - N/A   Overcast
1:53 PM 42.1 °F 40.2 °F 30.0 °F 62% 30.01 in 10.0 mi North 3.5 mph - N/A   Overcast
2:53 PM 44.1 °F 41.5 °F 30.9 °F 60% 29.99 in 10.0 mi ENE 4.6 mph - N/A   Clear
5:53 PM 42.1 °F - 33.1 °F 70% 29.98 in 10.0 mi Calm Calm - N/A   Overcast
6:53 PM 41.0 °F - 33.1 °F 73% 29.96 in 10.0 mi Calm Calm - N/A   Partly Cloudy
7:53 PM 37.9 °F - 32.0 °F 79% 29.97 in 6.0 mi Calm Calm - N/A   Haze
8:53 PM 37.9 °F 35.5 °F 30.9 °F 76% 29.95 in 7.0 mi SW 3.5 mph - N/A   Partly Cloudy
9:53 PM 37.0 °F 34.5 °F 32.0 °F 82% 29.94 in 10.0 mi ESE 3.5 mph - N/A   Clear
10:53 PM 37.0 °F 33.3 °F 32.0 °F 82% 29.93 in 10.0 mi ESE 4.6 mph - N/A   Mostly Cloudy
11:53 PM 37.9 °F - 30.9 °F 76% 29.92 in 9.0 mi Calm Calm - N/A   Mostly Cloudy